Regional Weather Roundup
Issued by NWS Sioux Falls, SD

Home | Current Version | Previous Version | Graphics & Text | Print | Product List | Glossary Off
Versions: 1 2 3 4 5 6 7 8 9 10 11 12 13 14 15 16 17 18 19 20 21 22 23 24 25 26 27 28 29 30 31 32 33 34 35 36 37 38 39 40 41 42 43 44 45 46 47 48 49 50

000
ASUS43 KFSD 271902
RWRFSD

WEATHER ROUNDUP FOR SE SOUTH DAKOTA/SW MINNESOTA/NW IOWA
NATIONAL WEATHER SERVICE SIOUX FALLS SD
200 PM CDT TUE JUN 27 2017

NOTE: "FAIR" INDICATES FEW OR NO CLOUDS BELOW 12,000 FEET WITH NO
SIGNIFICANT WEATHER AND OR OBSTRUCTIONS TO VISIBILITY.


SDZ038>040-050-052>070-272000-
SOUTHEAST SOUTH DAKOTA

CITY           SKY/WX    TMP DP  RH WIND       PRES   REMARKS
BROOKINGS      SUNNY     75  48  38 S23G29    29.88F
CHAMBERLAIN    CLOUDY    82  58  44 SE22G31   29.74F
HURON          SUNNY     79  48  33 SE23G32   29.77F
MADISON        FAIR      72  50  46 S25G31    29.88F
MITCHELL       SUNNY     81  49  32 S25G32    29.81F
SIOUX FALLS    MOSUNNY   75  54  47 S16G28    29.90F
WINNER         FAIR      87  58  37 S28G38    29.71F
YANKTON        MOSUNNY   78  57  48 SE21G28   29.87F
$$

MNZ071-072-080-081-089-090-097-098-272000-
SOUTHWEST MINNESOTA

CITY           SKY/WX    TMP DP  RH WIND       PRES   REMARKS
FAIRMONT       MOSUNNY   74  44  34 S18       29.98F
JACKSON        SUNNY     73  41  31 S18G26    29.98F
MARSHALL       SUNNY     75  44  33 S20       29.90F
MONTEVIDEO     MOSUNNY   75  45  33 SW13G23   29.90F
PIPESTONE      SUNNY     75  45  33 S23       29.91F
REDWOOD FALLS  SUNNY     77  39  25 S20G28    29.92F
TRACY          SUNNY     75  46  35 S15G26    29.92F
WINDOM         SUNNY     75  43  31 S16G22    29.96F
WORTHINGTON    SUNNY     73  46  38 S20G29    29.95F
$$

IAZ001>003-012>014-020>022-031-032-NEZ013-014-SDZ071-272000-
NORTHWEST IOWA

CITY           SKY/WX    TMP DP  RH WIND       PRES   REMARKS
CHEROKEE       MOSUNNY   73  46  37 S16G22    29.97F
DENISON        SUNNY     77  52  41 S13G20    29.99F
ESTHERVILLE    SUNNY     72  44  36 S17G29    29.97F
LE MARS        MOSUNNY   77  50  38 S18G28    29.94F
ORANGE CITY    CLOUDY    73  46  38 S18G25    29.95F
SHELDON        MOSUNNY   75  46  35 S21G26    29.94F
SIOUX CITY     SUNNY     78  55  44 S17G24    29.94F
SPENCER        SUNNY     76  43  30 S21G31    29.97F
STORM LAKE       N/A     75  46  35 S18G25    29.99F
$$

ABBREVIATIONS USED IN REMARKS
   TC - TEMPERATURE IN CELSIUS
  WCI - WIND CHILL INDEX
   HX - HEAT INDEX
  VSB - VISIBILITY





USA.gov is the U.S. government's official web portal to all federal, state and local government web resources and services.